Angel Fire, NM

5:46 AM MST on February 26, 2017 (GMT -0700)
Angel Fire

Weather History for KAXX - October, 2013

Change the Weather History Date:

Saturday, October 12, 2013

  Actual Average (KSKX) Record (KSKX)
Temperature  
Mean Temperature 36 °F -  
Max Temperature 54 °F 64 °F 78 °F (2015)
Min Temperature 19 °F 29 °F 26 °F (2013)
Degree Days  
Heating Degree Days 28    
Moisture  
Dew Point 27 °F    
Average Humidity 73    
Maximum Humidity 98    
Minimum Humidity 29    
Precipitation  
Precipitation 0.00 in - - ()
Sea Level Pressure  
Sea Level Pressure 30.27 in    
Wind  
Wind Speed 2 mph (SSW)    
Max Wind Speed 14 mph    
Max Gust Speed 23 mph    
Visibility 9 miles    
Events Fog    
Averages and records for this station are not official NWS values.
T = Trace of Precipitation, MM = Missing Value Source: NWS Daily Summary

Daily Weather History Graph

Daily Weather History Graph

Search for Another Location

Airport or City:

Trip Planner

Search our weather history database for the weather conditions in past years. The results will help you decide how hot, cold, wet, or windy it might be!

Date:

Astronomy

Oct. 12, 2013 Rise Set
Actual Time 7:05 AM MDT 6:28 PM MDT
Civil Twilight 6:39 AM MDT 6:54 PM MDT
Nautical Twilight 6:10 AM MDT 7:24 PM MDT
Astronomical Twilight 5:40 AM MDT 7:54 PM MDT
Moon 2:30 PM MDT (10/12) 12:22 AM MDT (10/12)
Length of Visible Light 12h 14m
Length of Day
11h 22m
First Quarter, 59% of the Moon is Illuminated
Oct 12
First Quarter
Oct 18
Full
Oct 26
Last Quarter
Nov 3
New
Nov 9
First Quarter

Hourly Weather History & Observations

Time (MDT) Temp. Windchill Dew Point Humidity Pressure Visibility Wind Dir Wind Speed Gust Speed Precip Events Conditions
12:15 AM 27.7 °F - 25.9 °F 93% 30.21 in 10.0 mi Calm Calm - N/A   Clear
12:35 AM 25.2 °F - 23.4 °F 93% 30.21 in 10.0 mi Calm Calm - N/A   Clear
12:55 AM 24.8 °F - 23.0 °F 93% 30.21 in 10.0 mi Calm Calm - N/A   Clear
1:15 AM 23.5 °F - 22.1 °F 94% 30.22 in 10.0 mi Calm Calm - N/A   Clear
1:35 AM 23.5 °F - 21.9 °F 94% 30.23 in 10.0 mi Calm Calm - N/A   Clear
1:55 AM 25.0 °F - 23.4 °F 94% 30.23 in 10.0 mi Calm Calm - N/A   Clear
2:15 AM 23.2 °F - 21.2 °F 92% 30.23 in 10.0 mi Calm Calm - N/A   Clear
2:35 AM 23.2 °F - 21.2 °F 92% 30.23 in 10.0 mi Calm Calm - N/A   Clear
2:55 AM 21.2 °F - 19.4 °F 93% 30.23 in 10.0 mi Calm Calm - N/A   Clear
3:15 AM 22.3 °F - 20.3 °F 92% 30.23 in 10.0 mi Calm Calm - N/A   Clear
3:35 AM 23.2 °F - 21.6 °F 94% 30.24 in 10.0 mi Calm Calm - N/A   Clear
3:55 AM 21.9 °F - 20.1 °F 93% 30.25 in 10.0 mi Calm Calm - N/A   Clear
4:15 AM 22.8 °F - 20.7 °F 91% 30.25 in 10.0 mi Calm Calm - N/A   Clear
4:35 AM 21.2 °F - 19.2 °F 92% 30.25 in 10.0 mi Calm Calm - N/A   Scattered Clouds
4:55 AM 21.0 °F - 19.2 °F 93% 30.25 in 10.0 mi Calm Calm - N/A   Scattered Clouds
5:15 AM 20.3 °F - 18.3 °F 92% 30.25 in 10.0 mi Calm Calm - N/A   Clear
5:35 AM 20.7 °F - 18.5 °F 91% 30.26 in 10.0 mi Calm Calm - N/A   Clear
5:55 AM 20.1 °F - 17.6 °F 90% 30.26 in 10.0 mi Calm Calm - N/A   Clear
6:15 AM 20.7 °F - 18.5 °F 91% 30.27 in 10.0 mi Calm Calm - N/A   Clear
6:35 AM 20.5 °F - 18.5 °F 92% 30.27 in 10.0 mi Calm Calm - N/A   Scattered Clouds
6:55 AM 19.4 °F - 17.2 °F 91% 30.27 in 10.0 mi Calm Calm - N/A   Clear
7:15 AM 19.6 °F - 17.6 °F 92% 30.28 in 10.0 mi Calm Calm - N/A   Clear
7:35 AM 19.2 °F - 17.2 °F 92% 30.29 in 10.0 mi Calm Calm - N/A   Mostly Cloudy
7:55 AM 22.5 °F - 20.8 °F 93% 30.30 in 10.0 mi Calm Calm - N/A   Overcast
8:15 AM 24.4 °F - 23.4 °F 96% 30.31 in 0.2 mi Calm Calm - N/A Fog Light Freezing Fog
8:35 AM 24.8 °F - 23.9 °F 96% 30.31 in 0.2 mi Calm Calm - N/A Fog Light Freezing Fog
8:55 AM 25.7 °F - 24.8 °F 96% 30.31 in 0.2 mi Calm Calm - N/A Fog Light Freezing Fog
9:15 AM 25.7 °F - 24.8 °F 96% 30.31 in 0.2 mi Calm Calm - N/A Fog Light Freezing Fog
9:35 AM 27.0 °F - 26.1 °F 96% 30.31 in 0.5 mi Calm Calm - N/A Fog Light Freezing Fog
9:55 AM 29.5 °F - 28.6 °F 96% 30.31 in 3.0 mi Calm Calm - N/A   Overcast
10:15 AM 32.0 °F 28.7 °F 31.5 °F 98% 30.31 in 10.0 mi NNE 3.5 mph - N/A   Scattered Clouds
10:35 AM 36.0 °F - 32.7 °F 88% 30.30 in 10.0 mi Calm Calm - N/A   Clear
10:55 AM 41.0 °F - 34.3 °F 77% 30.29 in 10.0 mi Calm Calm - N/A   Clear
11:15 AM 43.9 °F - 32.9 °F 65% 30.29 in 10.0 mi Calm Calm - N/A   Clear
11:35 AM 46.0 °F - 34.0 °F 63% 30.28 in 10.0 mi Calm Calm - N/A   Clear
11:55 AM 48.6 °F - 31.3 °F 51% 30.28 in 10.0 mi SE 3.5 mph - N/A   Clear
12:15 PM 49.8 °F - 30.7 °F 48% 30.27 in 10.0 mi South 10.4 mph - N/A   Clear
12:35 PM 51.4 °F - 31.3 °F 46% 30.26 in 10.0 mi South 8.1 mph - N/A   Clear
12:55 PM 51.3 °F - 30.7 °F 45% 30.25 in 10.0 mi South 6.9 mph - N/A   Clear
1:15 PM 51.8 °F - 31.6 °F 46% 30.25 in 10.0 mi SSW 6.9 mph - N/A   Clear
1:35 PM 52.7 °F - 32.4 °F 46% 30.24 in 10.0 mi South 6.9 mph - N/A   Clear
1:55 PM 52.2 °F - 27.0 °F 38% 30.23 in 10.0 mi West 5.8 mph - N/A   Clear
2:15 PM 52.9 °F - 28.4 °F 39% 30.23 in 10.0 mi West 5.8 mph - N/A   Clear
2:35 PM 54.0 °F - 30.7 °F 41% 30.23 in 10.0 mi SW 3.5 mph 9.2 mph N/A   Clear
2:55 PM 54.0 °F - 31.3 °F 42% 30.23 in 10.0 mi SW 8.1 mph - N/A   Clear
3:15 PM 54.5 °F - 27.5 °F 35% 30.23 in 10.0 mi WSW 9.2 mph - N/A   Clear
3:35 PM 54.7 °F - 23.9 °F 30% 30.23 in 10.0 mi SW 13.8 mph 23.0 mph N/A   Clear
3:55 PM 54.5 °F - 22.8 °F 29% 30.23 in 10.0 mi SSW 10.4 mph 16.1 mph N/A   Clear
4:15 PM 54.0 °F - 24.4 °F 32% 30.22 in 10.0 mi West 5.8 mph 18.4 mph N/A   Clear
4:35 PM 53.4 °F - 25.3 °F 34% 30.22 in 10.0 mi West 10.4 mph 16.1 mph N/A   Clear
4:55 PM 52.7 °F - 24.1 °F 33% 30.23 in 10.0 mi West 6.9 mph - N/A   Clear
5:15 PM 52.2 °F - 23.5 °F 33% 30.24 in 10.0 mi WSW 8.1 mph - N/A   Clear
5:35 PM 51.3 °F - 32.2 °F 48% 30.24 in 10.0 mi WSW 5.8 mph - N/A   Clear
5:55 PM 50.5 °F - 33.1 °F 51% 30.25 in 10.0 mi SSW 4.6 mph - N/A   Clear
6:15 PM 48.0 °F - 32.9 °F 56% 30.25 in 10.0 mi South 6.9 mph - N/A   Clear
6:35 PM 47.3 °F - 32.0 °F 55% 30.26 in 10.0 mi South 9.2 mph - N/A   Scattered Clouds
6:55 PM 45.1 °F 40.8 °F 32.0 °F 60% 30.27 in 10.0 mi SSE 8.1 mph - N/A   Clear
7:15 PM 43.2 °F 37.9 °F 32.0 °F 65% 30.28 in 10.0 mi South 9.2 mph - N/A   Clear
7:35 PM 42.6 °F 37.8 °F 32.0 °F 66% 30.29 in 10.0 mi South 8.1 mph - N/A   Clear
7:55 PM 40.3 °F 34.4 °F 32.0 °F 72% 30.29 in 10.0 mi SSW 9.2 mph - N/A   Clear
8:15 PM 40.1 °F 34.1 °F 32.0 °F 73% 30.30 in 10.0 mi SSW 9.2 mph - N/A   Clear
8:35 PM 39.4 °F 32.7 °F 31.8 °F 74% 30.30 in 10.0 mi SSW 10.4 mph - N/A   Clear
8:55 PM 38.7 °F 31.8 °F 31.5 °F 75% 30.31 in 10.0 mi South 10.4 mph - N/A   Clear
9:15 PM 38.8 °F 32.6 °F 31.5 °F 75% 30.32 in 10.0 mi SSW 9.2 mph - N/A   Clear
9:35 PM 38.5 °F - 31.1 °F 75% 30.33 in 10.0 mi Calm Calm - N/A   Clear
9:55 PM 38.3 °F - 31.3 °F 76% 30.33 in 10.0 mi Calm Calm - N/A   Clear
10:15 PM 37.6 °F - 31.1 °F 77% 30.33 in 10.0 mi Calm Calm - N/A   Clear
10:35 PM 36.9 °F 31.4 °F 31.1 °F 80% 30.34 in 10.0 mi SSW 6.9 mph - N/A   Clear
10:55 PM 36.5 °F 31.8 °F 30.4 °F 78% 30.34 in 10.0 mi West 5.8 mph - N/A   Clear
11:15 PM 34.2 °F - 30.2 °F 85% 30.34 in 10.0 mi Calm Calm - N/A   Clear
11:35 PM 33.6 °F - 29.7 °F 85% 30.34 in 10.0 mi Calm Calm - N/A   Clear
11:55 PM 33.4 °F - 29.5 °F 85% 30.34 in 10.0 mi Calm Calm - N/A   Clear